Theta_e
337 337 338 338 339 336 333 332 333 334 335 335 336 336 336 336 335 334 334 334 334 334 335 337 337 336 335 335 335 334 333 332 331 331 331 331 331 330 327 326 327 328 330 332 333 333 333 333 332 331 330 328 328 328 327 329 331 330 330 331 330 328
335 337 338 338 339 338 336 334 335 335 336 336 336 337 337 337 337 336 337 337 337 336 337 339 338 336 335 335 334 333 333 331 331 330 330 330 331 330 327 326 326 327 330 332 332 333 333 333 332 331 330 328 327 328 327 328 331 330 330 331 331 330
335 337 338 338 339 338 336 335 336 336 337 337 337 338 338 338 338 337 338 338 337 336 336 337 336 335 335 335 333 331 331 331 330 329 327 327 328 328 327 327 326 327 330 331 332 333 334 334 333 332 330 328 327 327 327 329 331 330 330 331 331 331
337 338 338 339 339 337 336 335 336 336 337 337 337 339 338 338 339 338 338 338 337 336 335 335 335 335 334 333 330 328 330 330 327 325 324 323 324 325 326 326 326 327 329 331 332 333 334 336 335 333 330 328 327 327 327 330 331 330 330 331 331 330
338 338 338 339 339 337 336 335 336 336 337 338 338 339 339 339 339 339 338 337 337 336 335 335 334 334 334 332 328 329 329 326 324 323 323 322 322 323 325 326 326 327 329 330 331 332 334 336 335 333 330 328 327 327 329 331 330 330 331 331 331 330
338 338 338 339 338 337 336 335 336 337 337 338 338 339 339 339 339 339 338 338 337 336 335 335 335 334 333 330 328 329 327 323 323 322 322 323 322 322 324 327 326 327 329 330 331 332 333 334 334 332 330 329 327 327 330 331 331 331 331 332 331 330
339 338 338 339 339 338 337 336 336 337 338 338 338 338 338 338 338 338 338 338 338 336 336 335 335 332 331 330 329 327 324 323 324 323 323 325 325 324 325 327 327 327 329 329 330 332 333 333 333 332 331 329 328 328 330 331 331 331 331 332 330 330
339 338 338 338 339 339 337 337 336 337 338 337 337 337 336 337 337 337 338 339 338 337 336 336 335 331 330 330 328 325 324 325 326 325 326 328 327 327 327 327 327 328 329 329 330 332 333 333 333 332 331 329 329 329 329 330 331 331 331 331 331 330
339 338 338 338 339 339 337 337 337 337 338 337 337 336 336 336 337 337 338 337 337 336 336 335 334 332 330 328 326 325 326 327 329 329 329 330 330 330 330 329 329 329 329 329 329 331 332 333 332 332 330 329 330 329 328 329 330 331 330 330 331 329
340 339 338 338 339 338 338 337 337 338 338 337 335 335 337 337 337 336 336 335 335 334 334 333 332 331 331 327 325 327 328 330 331 331 331 331 331 331 331 330 330 329 329 329 330 330 332 332 332 331 331 330 330 329 328 330 330 330 330 330 330 329
339 339 339 339 339 338 337 336 336 338 337 335 334 335 337 336 335 334 334 334 334 333 333 332 330 330 330 328 326 327 329 331 331 331 331 331 331 331 331 330 330 330 329 330 330 330 330 331 332 331 331 330 329 329 330 330 330 329 330 330 329 330
339 339 338 338 338 337 337 336 336 336 334 332 332 333 333 334 334 332 332 333 334 334 334 332 330 329 328 327 327 328 330 331 331 330 330 331 331 330 331 330 330 330 330 330 330 330 329 330 332 332 331 330 330 331 331 329 328 329 329 329 329 330
339 338 338 337 337 336 336 336 336 334 332 331 330 329 330 333 333 331 332 333 334 335 335 334 332 331 329 327 327 330 331 331 330 330 330 331 330 330 330 330 329 329 330 330 330 331 330 330 332 332 332 331 330 331 331 329 328 328 329 330 331 331
338 338 336 335 336 336 336 336 334 332 332 330 329 327 327 331 334 333 333 333 333 334 335 334 333 332 331 329 328 330 330 331 331 331 331 331 331 330 330 329 329 329 329 331 332 332 331 332 333 332 332 331 329 328 328 328 327 327 329 329 331 331
338 337 334 334 335 335 335 334 332 332 331 330 328 327 327 330 333 333 333 334 334 333 334 334 334 333 332 331 330 331 331 331 331 331 331 331 331 330 329 329 329 328 329 332 333 332 332 333 333 331 331 329 326 325 325 325 325 327 329 329 330 331
338 336 333 334 335 334 334 332 331 330 330 330 327 327 329 331 332 333 334 334 333 332 333 334 334 333 333 332 332 332 332 331 331 331 331 331 331 330 330 329 328 327 329 332 333 332 332 332 332 330 329 326 324 324 325 325 326 328 330 330 330 331
338 335 332 333 334 333 332 330 330 329 329 330 328 329 333 332 330 332 334 334 332 333 334 334 334 334 333 333 332 332 332 331 332 332 331 332 332 330 330 329 328 327 330 332 332 332 332 331 330 328 326 324 323 325 325 326 329 329 329 330 329 329
337 334 331 331 333 332 330 330 329 329 330 330 330 332 334 332 330 331 334 334 333 334 334 334 334 333 333 332 332 332 331 331 332 333 332 332 332 331 330 329 328 328 330 332 331 332 332 330 328 327 327 326 326 325 325 326 329 328 328 329 328 328
335 332 331 331 331 330 330 330 330 331 331 331 332 334 334 332 331 333 334 334 334 334 334 333 333 333 332 332 331 331 331 331 332 332 332 332 332 331 330 329 328 329 330 331 331 332 331 329 329 329 329 329 328 328 326 327 328 327 328 328 327 327
334 333 332 331 331 331 331 331 331 332 333 332 333 334 334 333 332 333 334 334 334 334 333 332 333 332 332 332 332 332 332 332 332 332 332 332 332 331 330 330 330 330 330 330 331 331 331 330 330 330 329 329 329 329 329 329 329 329 328 329 328 328
334 333 332 332 332 331 331 331 331 332 333 333 333 334 334 332 332 333 334 334 334 334 333 332 333 332 332 332 332 332 332 332 332 332 332 332 332 331 330 331 331 330 330 330 330 331 330 329 329 329 328 329 329 329 329 329 329 329 329 329 329 328
334 333 332 332 332 331 331 331 331 332 333 333 333 334 334 332 331 333 334 334 333 333 333 332 332 332 332 332 332 332 333 333 332 332 332 331 331 331 330 331 331 330 330 329 330 330 329 329 329 328 328 328 327 327 327 328 328 329 328 328 329 328
334 333 332 331 331 332 331 332 332 332 332 332 332 333 333 332 332 333 333 333 333 333 333 333 332 332 332 332 332 332 333 333 332 332 331 331 331 331 330 331 330 330 330 329 330 329 329 329 330 329 328 328 327 326 326 327 327 327 327 327 327 328
334 332 331 329 330 332 332 332 332 332 332 332 332 332 333 333 333 333 334 334 334 333 333 333 333 333 333 333 333 333 333 333 332 332 331 331 331 331 331 331 331 331 330 330 330 330 329 329 329 329 329 329 328 328 327 326 326 325 326 327 326 327
333 332 331 330 330 331 332 332 332 332 332 332 332 332 333 333 333 334 335 335 334 334 334 334 333 333 333 333 333 332 332 333 332 332 332 332 331 331 331 331 331 331 331 330 330 331 330 328 328 329 329 329 328 329 327 325 326 325 325 325 325 326
332 332 332 331 331 331 332 332 332 332 333 333 333 333 333 334 333 334 334 334 334 333 333 333 333 333 332 332 332 332 332 332 332 331 332 332 331 331 331 331 331 330 330 330 331 332 330 328 327 327 327 328 328 328 327 325 326 326 325 325 324 325
333 332 332 331 331 331 332 333 333 333 334 334 333 333 333 333 333 333 333 334 333 333 332 333 333 333 332 332 332 332 331 331 331 331 332 332 331 331 331 331 330 330 330 329 330 332 331 328 328 327 326 327 327 328 327 326 326 326 325 324 324 324
332 331 331 330 331 332 333 333 333 333 334 334 334 333 333 332 333 333 333 333 333 333 333 333 333 332 332 332 332 332 331 331 331 331 331 331 331 331 330 330 330 330 329 329 329 332 331 329 329 328 327 327 327 327 326 327 327 326 325 324 323 324
331 330 330 330 331 332 333 333 333 333 333 333 332 332 332 332 333 333 333 332 332 332 332 332 332 331 331 331 331 331 331 331 331 331 331 331 331 331 330 329 330 330 329 329 329 330 330 328 328 328 327 327 326 326 325 326 327 327 326 324 323 323
330 330 330 331 332 333 333 333 333 332 332 331 331 331 332 333 333 333 332 331 331 332 331 331 330 330 330 330 330 331 331 331 331 331 331 331 331 331 330 329 329 330 330 329 328 329 329 328 328 328 327 327 326 325 325 326 327 327 327 326 324 323
329 329 330 331 332 333 333 333 332 331 330 330 330 331 333 333 332 331 331 330 330 330 329 329 328 327 328 328 328 329 330 331 331 331 331 331 331 331 330 329 329 328 329 329 328 328 328 328 328 327 327 327 326 326 326 326 326 326 326 327 325 323
329 330 330 332 332 333 333 333 332 330 330 330 330 331 332 331 330 329 328 328 328 328 327 326 326 325 325 325 325 326 327 328 330 331 331 330 331 332 331 330 329 328 327 328 328 328 328 329 329 328 329 328 325 325 327 326 326 326 327 327 325 324
330 331 331 332 333 333 333 333 331 330 329 329 330 330 330 329 327 326 326 326 326 326 325 325 324 324 324 324 324 324 325 326 328 330 330 329 331 332 331 330 330 329 328 328 328 328 328 329 329 329 330 328 325 324 325 325 325 326 327 327 326 324
330 331 331 332 333 333 333 331 329 329 329 328 328 328 328 327 324 323 323 323 324 324 324 324 324 324 324 324 323 323 323 324 327 329 328 328 329 331 331 331 330 329 329 329 328 328 328 329 330 330 330 329 327 325 324 323 323 325 326 326 326 324
331 331 332 332 334 333 332 330 329 329 328 325 325 325 325 324 323 323 323 323 323 323 323 324 324 324 323 323 323 324 324 324 326 327 327 327 328 329 330 331 330 329 329 329 329 328 328 328 328 329 329 329 328 326 324 322 322 323 325 325 325 324
331 331 332 333 334 332 331 329 328 329 328 325 324 324 323 323 323 323 323 323 323 323 324 324 324 324 323 323 324 324 325 325 326 327 326 326 326 327 328 329 330 329 328 328 328 327 327 327 327 327 328 328 328 327 324 322 322 322 324 324 324 323
330 331 333 333 332 332 331 329 328 329 328 325 324 324 324 324 324 324 324 323 323 324 324 323 323 324 323 323 323 323 323 324 325 325 325 325 325 326 327 328 329 328 327 328 328 327 327 327 326 327 327 327 328 328 325 322 321 321 322 322 322 322
Wind_Speed
20 21 19 19 19 20 19 18 18 18 19 18 18 17 18 18 18 17 16 17 16 17 16 13 13 13 13 13 13 11 11 12 13 13 13 12 12 12 13 14 13 13 12 12 12 12 13 15 15 13 12 11 10 10 11 11 11 11 11 11 12 12
22 22 20 20 20 20 20 19 17 18 18 18 17 17 17 18 18 17 17 16 16 17 16 14 14 14 14 13 12 11 10 10 11 12 12 12 11 11 12 13 13 14 13 12 12 12 14 15 14 13 11 10 10 9 10 11 11 10 10 11 11 12
24 24 22 21 21 21 21 20 18 18 18 17 17 16 17 18 17 16 16 16 16 17 16 14 14 13 13 12 11 11 10 9 9 10 12 12 12 11 12 12 13 14 14 13 13 13 14 15 13 12 11 10 9 9 10 11 10 10 10 10 11 11
23 24 23 22 23 23 22 21 18 18 18 17 17 16 17 17 17 16 16 17 16 16 15 14 13 13 12 11 11 11 10 9 9 10 11 12 12 11 12 12 12 13 14 13 13 14 14 14 13 12 11 10 9 9 10 10 10 10 10 10 10 11
22 24 24 22 24 25 23 21 19 18 18 17 17 17 17 17 17 16 16 16 16 16 15 14 14 14 11 11 11 10 9 9 10 10 10 11 11 11 11 12 12 13 14 13 13 14 15 13 12 13 12 10 9 8 9 9 10 10 10 9 10 10
22 24 24 22 23 25 23 22 19 18 18 17 17 17 16 16 16 15 15 15 16 16 15 14 14 12 10 10 10 8 9 10 9 9 9 9 10 11 12 13 13 14 14 13 12 13 14 14 14 15 13 11 9 8 9 9 9 9 9 8 9 9
22 23 24 22 23 23 22 22 19 18 17 17 17 16 16 15 15 15 15 15 15 15 14 14 13 11 10 9 9 9 10 10 9 9 9 9 9 11 12 13 14 14 14 13 12 13 14 16 16 15 13 11 9 8 9 9 8 8 8 8 8 9
22 23 23 22 22 21 21 21 19 18 17 17 17 15 15 15 15 15 15 14 14 14 13 12 11 11 10 9 10 10 10 9 9 9 9 9 9 10 11 12 13 14 13 12 11 13 15 17 17 15 14 12 10 9 9 9 9 8 8 7 8 8
22 24 23 22 22 20 20 19 18 17 16 17 16 14 14 15 15 16 14 14 14 13 12 11 10 10 10 10 11 11 11 10 9 10 10 9 9 10 10 11 12 12 12 12 12 14 16 17 17 15 14 12 10 9 9 9 9 8 8 7 8 7
23 25 24 22 20 19 19 19 18 16 15 16 15 14 15 15 15 15 14 13 13 12 12 12 11 11 11 11 12 11 11 10 9 9 9 8 8 9 9 10 11 11 12 12 12 14 16 17 17 15 13 11 10 9 8 8 8 8 7 7 8 7
25 26 25 22 20 21 21 21 19 16 16 16 14 14 15 15 15 14 12 12 11 11 11 11 11 11 12 12 11 11 11 10 9 9 8 7 7 8 8 9 10 11 12 11 12 13 15 16 16 15 12 11 10 8 8 8 8 7 7 7 8 8
25 26 27 25 24 24 23 21 19 18 17 16 15 13 12 14 15 13 12 11 10 10 11 10 10 11 11 11 11 11 10 9 9 8 7 6 6 7 8 8 9 11 11 11 12 13 13 15 15 14 12 10 9 7 7 8 8 7 8 8 8 9
25 26 27 27 26 25 23 21 20 19 18 16 14 13 13 12 13 13 13 12 10 10 11 10 9 9 9 9 9 9 9 8 7 7 6 5 5 7 8 8 9 10 11 12 13 14 14 14 14 12 10 9 8 7 7 8 8 8 9 9 8 8
25 26 25 24 25 25 23 21 20 18 18 15 13 14 16 13 12 13 13 12 10 9 8 8 8 8 8 8 8 8 7 7 6 5 6 5 5 7 8 8 9 10 12 12 11 13 13 12 11 9 8 7 8 8 8 7 8 9 9 10 8 7
24 24 22 21 24 25 23 21 19 17 15 13 12 14 15 13 12 13 12 11 10 8 7 7 7 7 7 8 8 7 6 5 4 4 6 6 6 7 8 8 8 10 11 9 8 9 10 10 10 10 10 9 8 8 9 8 8 8 9 9 8 6
24 23 21 23 24 24 23 20 18 16 13 12 13 14 13 12 13 13 11 9 8 7 7 7 6 6 6 7 7 6 5 5 5 6 7 7 7 7 8 9 9 9 10 9 8 8 8 9 11 12 13 11 10 9 9 9 7 8 8 7 6 5
23 21 20 25 25 22 21 19 17 15 14 13 14 14 12 12 13 12 9 6 6 6 8 7 6 6 6 6 7 6 6 6 6 7 8 8 7 7 7 8 9 10 9 8 9 9 9 11 13 14 14 12 11 9 9 9 7 7 7 7 6 5
20 18 17 23 24 21 19 17 16 16 15 15 15 13 11 11 11 10 7 6 7 8 8 7 6 6 5 6 7 6 7 8 7 7 8 7 7 7 7 8 10 10 7 7 10 9 10 13 15 13 12 11 10 8 8 8 7 7 7 7 6 5
19 17 15 18 20 20 17 15 16 16 15 15 14 12 11 10 10 9 8 8 9 8 7 6 7 6 6 6 7 7 8 8 8 6 7 7 6 7 8 8 9 9 7 6 9 10 12 15 15 12 11 11 9 7 8 7 6 7 7 6 5 5
18 17 17 17 17 17 16 15 16 15 15 14 13 12 10 9 10 10 8 8 8 8 7 7 8 8 7 7 7 8 8 8 7 6 6 7 7 6 7 7 7 9 9 8 9 10 13 14 13 12 11 12 10 8 8 8 7 7 6 6 5 4
19 18 20 18 16 16 15 15 16 15 14 13 12 11 9 10 11 9 7 7 8 8 9 9 9 9 8 8 8 9 9 9 8 7 6 7 7 6 7 6 7 9 10 12 12 12 16 17 14 13 12 12 12 10 9 9 8 7 6 6 5 4
20 18 20 18 15 16 14 14 15 14 13 11 11 10 9 11 10 8 8 8 9 10 10 10 10 9 9 9 9 10 10 10 8 7 7 7 8 7 7 7 8 11 11 13 13 14 19 18 13 12 13 13 11 11 11 11 10 9 7 6 5 5
20 17 20 20 16 14 13 12 12 12 12 11 10 9 9 10 10 9 9 9 10 11 10 10 9 9 8 9 10 11 11 11 9 8 8 9 8 8 8 8 10 12 12 12 13 14 18 17 14 13 12 10 7 7 9 10 11 9 8 7 6 6
18 17 20 22 18 13 11 11 9 9 10 9 8 8 8 9 10 10 10 10 10 9 9 9 9 8 8 8 9 11 11 11 10 9 9 9 9 9 9 10 10 12 14 14 13 13 13 15 17 14 8 6 5 5 5 8 10 9 8 8 7 6
17 18 20 20 18 13 11 11 9 9 9 8 7 8 8 8 9 9 9 9 9 8 8 8 8 8 8 8 9 10 10 11 10 9 9 8 9 9 9 10 11 13 15 15 15 13 11 16 18 11 6 6 4 3 5 9 10 7 7 9 8 7
15 17 18 16 16 14 13 12 12 12 12 10 9 8 8 8 9 8 8 9 8 7 7 7 6 7 7 7 8 9 10 9 9 9 9 8 8 9 9 11 12 14 16 16 16 14 12 17 17 9 7 6 0 2 9 12 8 5 7 8 8 8
15 15 15 14 16 16 14 13 13 13 12 11 11 9 9 8 7 7 7 8 7 6 7 6 6 6 7 7 7 9 9 8 8 8 9 9 9 10 10 11 12 14 16 16 17 14 12 16 14 7 8 5 2 6 14 12 7 7 7 6 7 8
15 14 14 14 16 16 14 14 13 13 12 11 11 10 8 8 8 8 7 7 7 7 8 7 7 7 7 7 8 9 9 8 8 8 9 9 9 10 11 11 12 14 15 17 17 13 12 15 13 8 8 4 1 11 14 8 9 10 7 6 7 7
13 13 14 15 16 15 13 13 13 14 15 13 12 11 8 8 8 8 8 8 8 8 9 9 8 8 7 7 7 9 9 8 8 9 10 9 9 10 11 12 14 15 16 16 15 12 12 17 17 12 9 6 6 12 11 7 9 11 9 8 7 7
13 14 15 15 15 14 15 15 15 18 18 15 14 12 9 8 8 7 8 9 8 8 7 8 8 8 8 8 7 8 9 9 9 9 10 10 10 11 12 13 15 15 15 15 13 11 12 16 18 15 11 8 10 12 10 8 9 10 9 8 7 10
15 17 17 15 15 16 17 17 18 19 19 17 16 14 12 10 9 9 9 9 9 9 9 9 9 9 9 8 8 7 8 8 8 9 10 10 11 11 12 14 15 14 14 13 12 13 13 13 16 17 12 9 10 12 11 9 10 11 10 9 9 10
17 18 18 17 17 19 19 19 19 19 18 16 16 16 15 14 12 12 12 13 12 12 11 10 10 9 9 8 7 7 7 8 7 8 9 10 10 11 12 13 14 16 17 15 13 14 14 13 15 16 14 11 11 10 8 7 10 12 10 11 13 11
19 18 18 19 19 19 19 19 19 18 17 16 15 16 16 16 15 15 15 15 14 13 12 11 10 9 8 7 6 5 6 7 8 8 9 10 10 10 11 11 12 15 15 14 13 13 14 15 15 15 14 13 11 9 7 6 10 11 10 12 14 13
18 17 18 21 20 19 20 19 19 19 17 16 17 17 18 18 17 17 16 15 14 13 12 11 9 9 7 6 5 4 4 6 8 8 9 10 10 9 9 9 10 12 11 10 11 13 14 13 13 13 13 12 10 9 8 7 11 13 13 14 14 14
17 18 20 22 22 21 20 21 20 19 18 18 19 18 19 19 18 18 16 15 13 12 11 10 9 7 6 6 5 3 4 7 9 8 8 9 8 8 8 8 8 9 10 10 11 12 12 11 11 12 13 12 10 9 9 8 10 13 13 14 15 17
16 19 23 23 23 22 22 22 21 20 19 20 20 20 20 20 18 17 15 14 12 11 10 9 8 7 6 6 5 4 5 8 9 8 7 7 7 7 7 7 8 8 9 10 9 9 9 9 9 10 12 12 9 8 8 8 10 13 13 14 17 19
14 19 24 23 22 22 22 22 21 20 20 21 20 20 20 20 19 17 14 13 12 11 10 9 7 8 7 7 5 5 5 7 8 7 7 6 6 6 7 8 8 8 7 8 8 8 8 8 8 8 10 11 9 9 9 8 10 14 14 15 18 18
Wind_Direction
166 166 166 166 162 163 166 164 161 158 154 154 154 156 155 153 152 154 156 155 156 155 151 150 149 150 148 146 144 142 143 138 134 137 142 148 151 151 152 152 149 145 142 138 133 133 139 142 142 141 136 128 120 112 110 115 112 104 100 99 101 103
168 169 170 168 165 164 167 164 162 161 158 156 157 158 157 154 155 156 155 153 153 150 147 146 147 148 147 145 143 142 142 137 132 135 139 144 150 151 151 150 149 148 146 143 138 134 141 144 145 147 140 129 123 118 114 116 112 105 102 98 102 104
172 172 171 170 168 166 167 166 165 166 162 160 159 159 160 160 159 159 157 155 152 149 148 146 145 146 145 143 146 147 141 135 131 130 134 141 150 155 153 149 147 148 148 147 142 138 142 146 150 152 145 135 128 120 117 116 112 105 102 99 103 106
173 173 172 172 171 169 168 168 168 169 165 163 162 161 164 164 163 163 162 160 155 151 148 143 142 143 144 145 148 149 141 134 131 129 133 138 147 156 157 156 152 150 150 149 145 143 144 144 147 153 151 143 130 122 120 117 113 109 105 101 103 105
175 176 175 173 173 172 170 170 170 172 168 166 166 163 164 165 165 166 166 164 158 153 150 147 148 147 148 151 148 144 137 134 133 132 132 133 139 148 154 159 157 152 152 152 150 149 149 146 145 152 152 143 132 127 124 118 115 112 109 104 104 105
179 181 179 174 174 173 171 171 172 173 170 169 169 165 164 165 165 166 168 168 162 156 153 151 152 150 148 150 146 141 139 137 136 133 129 127 130 138 147 152 153 154 154 155 152 150 153 153 150 152 149 140 135 131 126 121 117 114 110 107 104 101
182 182 180 177 174 174 174 174 174 173 172 171 169 166 164 165 164 165 166 166 161 158 157 155 153 150 145 145 147 145 143 140 137 132 125 121 121 128 138 144 150 154 155 153 147 144 151 156 153 151 147 140 139 135 130 125 120 116 110 109 109 105
185 182 181 179 175 175 176 174 174 175 173 171 169 167 165 162 162 164 163 162 159 157 157 156 151 148 146 146 149 148 147 143 136 130 122 119 118 122 128 136 146 152 154 150 140 138 146 153 153 150 147 143 142 140 137 131 125 118 111 109 114 116
185 183 182 179 177 176 176 174 175 176 172 172 170 165 164 162 161 162 162 163 162 160 159 157 151 148 150 150 151 150 147 143 135 130 125 120 119 122 125 130 140 150 154 149 139 135 142 150 152 151 152 149 146 148 145 136 128 121 117 113 112 114
182 182 182 179 178 175 172 175 176 176 174 173 169 163 164 162 161 162 163 164 165 166 164 160 155 150 154 155 153 152 149 144 137 132 127 122 121 124 128 131 136 145 152 152 143 137 142 148 152 156 156 153 155 156 148 138 131 125 123 120 115 114
184 183 182 178 177 174 173 177 179 176 174 171 165 166 168 159 156 160 164 167 167 167 165 160 157 155 158 157 155 155 153 145 138 134 131 124 125 129 132 134 136 141 148 153 148 142 146 149 154 160 160 161 165 158 145 137 133 129 127 128 124 117
187 186 185 183 178 178 177 178 181 176 174 172 165 167 168 158 156 160 164 168 168 170 168 159 156 157 159 157 156 158 154 146 140 139 140 133 132 138 138 137 136 138 144 150 148 146 150 151 155 161 161 164 158 140 138 140 135 134 131 129 125 117
190 191 190 186 178 180 180 178 180 178 178 180 177 176 173 166 163 165 168 170 173 182 177 161 154 157 157 158 160 161 156 150 149 150 153 150 146 146 144 143 139 139 147 152 149 149 153 155 155 154 153 154 144 129 133 139 140 141 137 127 119 114
191 195 193 188 179 179 180 177 181 181 179 183 191 188 179 173 170 173 176 174 176 182 180 169 163 160 159 164 167 167 164 160 161 168 170 166 159 152 149 147 144 146 153 154 150 152 154 148 139 134 135 144 149 144 138 142 146 146 146 140 134 128
191 193 188 188 183 177 178 178 182 183 180 185 193 186 176 174 177 179 180 179 171 167 184 189 177 166 164 171 174 172 173 178 188 192 183 176 167 157 154 152 149 153 154 149 145 146 143 133 124 129 141 148 151 149 143 145 149 150 152 148 144 140
193 196 186 186 183 176 179 182 183 185 187 190 187 180 177 179 180 179 180 177 159 161 200 201 180 172 171 174 177 175 177 195 206 199 188 179 166 158 160 158 155 160 156 146 145 142 134 128 124 134 147 151 151 152 146 141 147 152 153 147 139 137
197 203 189 184 183 178 182 184 186 190 195 194 183 180 181 181 182 181 180 169 153 182 207 194 176 173 173 177 178 178 184 192 198 193 186 177 167 161 163 164 161 164 160 148 148 143 134 129 126 134 143 144 147 150 139 135 146 150 146 142 139 138
199 201 187 182 182 182 185 185 189 193 196 192 184 181 179 181 188 187 185 179 178 197 199 182 177 172 176 184 178 180 184 184 187 188 183 175 172 165 164 173 170 165 161 151 151 147 140 132 126 131 135 136 143 142 130 131 142 145 142 138 138 139
200 198 189 182 178 180 184 184 188 190 192 189 183 182 181 183 191 191 194 193 190 195 192 186 184 178 181 182 176 180 181 181 184 185 181 174 173 171 166 176 176 162 150 151 155 147 139 131 125 127 129 129 129 126 127 133 137 136 135 131 131 135
203 199 190 181 172 172 177 182 186 185 185 185 184 185 183 186 193 195 199 196 192 195 196 194 191 187 185 180 178 180 180 185 186 181 181 174 172 174 169 171 170 155 143 145 151 141 135 129 119 115 117 118 115 115 121 124 127 127 131 134 131 131
205 202 192 182 173 171 175 183 187 183 180 182 185 185 183 190 195 199 202 198 197 197 195 195 196 193 188 185 184 181 183 190 190 180 177 174 171 173 173 168 158 152 150 149 148 143 142 134 118 111 108 105 101 101 107 107 108 111 119 128 122 125
201 200 194 186 177 177 180 182 186 184 180 180 185 184 187 193 195 202 205 201 197 194 194 195 194 195 193 196 193 186 189 194 192 180 173 170 170 173 174 170 158 154 155 154 150 147 149 145 130 123 118 109 100 95 96 92 88 91 101 110 114 118
198 195 194 191 184 183 184 183 184 183 180 178 183 186 188 192 196 203 202 195 193 191 194 194 190 193 197 203 201 195 194 193 191 184 175 170 171 176 175 175 167 157 153 153 150 152 158 155 140 135 131 123 121 111 102 93 81 79 91 99 102 107
196 192 193 195 191 184 178 179 177 175 176 175 179 182 182 189 197 201 197 192 191 191 196 194 187 189 193 195 198 200 198 192 189 187 181 175 174 177 178 179 175 164 156 151 153 159 166 160 147 143 139 125 140 147 125 111 94 77 84 91 88 93
192 191 191 194 192 182 172 173 165 160 167 168 173 177 178 188 194 195 196 193 190 190 194 191 184 184 185 189 192 194 194 191 190 190 184 181 179 181 183 184 180 175 167 158 158 162 161 160 157 153 145 129 143 157 137 136 121 90 85 86 82 91
182 187 191 194 191 186 178 173 166 163 169 171 175 181 184 187 188 187 193 193 189 185 182 178 176 175 178 191 195 187 189 194 194 192 188 184 183 184 186 189 189 186 180 168 163 162 161 168 168 163 158 154 205 157 148 152 145 109 101 90 79 87
183 189 191 190 186 183 178 175 173 173 175 175 175 178 182 181 181 182 183 184 182 172 167 168 170 173 178 189 190 185 190 196 192 192 191 185 185 187 187 191 194 193 189 180 171 165 162 170 176 181 180 188 309 155 153 155 153 143 131 105 85 85
190 191 187 182 179 177 176 175 176 176 176 176 173 168 170 172 172 173 171 169 171 167 167 171 173 175 179 182 183 185 190 191 188 189 189 186 185 187 187 189 195 200 199 190 180 168 156 168 184 196 191 201 187 159 156 149 149 148 143 131 116 98
183 182 181 179 177 178 179 176 176 178 176 175 173 165 160 164 163 162 164 163 165 167 166 167 168 169 172 173 176 183 186 184 184 184 187 189 187 188 190 192 197 202 204 200 189 175 169 180 191 195 189 179 148 155 154 135 139 139 136 144 141 130
174 179 181 179 177 179 181 180 181 181 177 173 172 168 157 157 160 157 159 158 159 160 158 158 156 157 161 164 166 174 180 180 180 184 189 194 194 192 193 194 197 200 207 210 204 197 197 198 199 199 197 183 156 156 157 146 146 141 136 141 141 144
177 182 181 180 180 181 183 185 185 182 178 174 172 169 160 157 159 157 156 154 153 152 150 150 150 150 152 153 157 162 170 177 181 186 190 194 195 193 193 194 196 199 205 210 210 212 217 217 212 208 208 199 177 173 175 170 166 158 147 142 140 145
179 183 183 183 184 184 184 185 185 182 181 179 174 171 166 161 160 159 158 153 151 150 150 150 149 149 149 145 149 155 166 177 183 188 191 192 192 192 194 193 194 199 202 203 206 212 219 222 217 211 211 211 202 194 191 181 170 166 159 150 145 145
179 183 183 184 187 188 186 185 184 183 182 179 176 173 169 165 163 163 161 157 156 156 156 155 152 151 150 145 148 152 166 181 185 186 186 186 187 190 190 188 192 198 200 200 203 209 217 220 216 212 213 213 214 211 204 188 175 169 156 148 145 142
179 182 182 185 189 190 187 185 185 185 183 180 178 176 171 169 167 166 165 165 165 164 161 160 159 158 156 155 159 163 173 182 181 176 175 177 180 185 189 188 189 192 194 198 205 212 216 218 217 218 217 216 219 219 210 197 185 178 163 153 149 144
179 181 183 187 191 191 189 188 187 186 185 182 179 177 174 172 171 169 170 171 172 171 170 169 168 165 159 155 159 161 166 172 170 164 164 168 174 181 189 190 185 186 192 197 205 211 210 210 217 222 222 219 219 218 214 201 190 185 174 164 159 153
182 182 186 191 193 194 193 190 189 189 187 185 181 178 176 175 174 173 173 174 174 175 175 177 177 170 157 146 137 128 137 155 161 160 160 164 173 183 189 189 185 187 194 194 195 199 198 202 212 218 218 214 207 209 212 201 192 191 184 176 171 165
183 186 190 195 197 198 197 193 193 193 191 189 187 183 180 177 177 178 178 174 172 171 173 176 175 167 157 144 130 119 126 146 158 164 168 169 176 184 187 187 187 191 192 189 188 190 191 197 205 208 208 203 196 202 206 198 196 195 192 187 182 176